CZ-6A DEB, 60883

Orbit data source: Space-Track

CZ-6A DEB, 60883 is space debris in LEO originally from a launch on Tue, 06 Aug 2024 UTC launched from the Taiyaun Space Center, China (TSC). Debris objects in space refer to the collection of defunct objects orbiting the Earth. Examples of debris include non-operational satellites, rocket bodies, and fragments generated from explosions, collisions, or faulty payload assembly.

Loading next visibility...
Identifier
60883, 2024-140KN
Orbit
LEO
Country
Flag of CNCN / PRC
Related business
Manufacturer
SAST
Mission
Spacecraft
Bus & Motor
Unknown
Mass
Unknown
Launch date (UTC)
2024-08-06 (2 years ago)
Launch vehicle
Unknown
Launch site
Taiyaun Space Center, China (TSC)
Object type
Payload
Rocket body
Debris
Shape & HBR
Unknown shape, 0.2 m
Radar Cross Section
Medium (>0.1 m² and <1 m²)

Expand to show TLE details & history
Last TLE update: 15 hours ago

TLE from 15 hours ago
0 CZ-6A DEB
1 60883U 24140KN  26171.22425470  .00003804  00000-0  43970-3 0  9990
2 60883  88.8013 249.8137 0133137 181.7327 178.3454 14.79080472 98423
Epoch: 2026-06-20T05:22Z
TLE epoch observation values (Epoch: 2026-06-20T05:22:55.606Z)
Latitude
-0.00007°
Longitude
-99.35994°
Altitude
728.682 km
Speed
7.441 km/s
True Right ascension
16h 39m 15s
True Declination
0° 00' 00"
Sunlit
Object was in full shadow at epoch
Visualization orbit readout
Latitude
Unknown
Longitude
Unknown
Altitude
Unknown
Speed
Unknown
Apparent Right ascension
Unknown
Apparent Declination
Unknown
Sunlit
N/A
Visualization observer readout
Local Sidereal Time
07:19:17
Azimuth
Unknown
Elevation
Unknown
Doppler factor
Unknown
Orbital elements
Apogee altitude
722.388 km
Perigee altitude
535.803 km
Semi-major axis
7,007.233 km
Eccentricity
0.01331
Inclination
88.8013°
RAAN
249.8137°
Arg. of periapsis
181.7327°
True anomaly
178.38873°
Mean anomaly
178.3454°
Eccentric anomaly
178.36714°
Mean motion
3.70018 °/min
Orbital period
97.29 mins
BSTAR
0.0004397
Loading maneuver chart data...
Computing Atmospheric mass density...
Loading historical data...
Loading historical data...
Loading historical data...
Loading historical data...
Loading historical data...
Loading historical data...
Loading historical data...

Documentation

Showing up to 5 results
|